Powrót do katalogu

JD 3

AktywnyNaukaLEO
NORAD 14795·PAYLOAD·🇺🇸 United States

Wystrzelony Feb 5, 1984 z Vandenberg Space Force Base

Loading…

Następne Przeloty (najbliższe 24 godziny)

TLE

ŚwieżeSource: Space-Track

Epoka: Sep 14, 2026, 12:07 UTC

1 14795U 84012F   26257.50531479  .00005596  00000-0  51446-3 0  9995
2 14795  63.3024  70.1873 0710978 128.4180 238.2928 13.90588312367086

Śledź JD 3 w czasie rzeczywistym z AllMySat

Download on the App Store